Oxford, NC

2:57 PM EST on December 05, 2019 (GMT -0500)
Henderson-Oxford

Weather History for KHNZ - October, 2019

Change the Weather History Date:

Tuesday, October 29, 2019

  Actual Average (KTDF) Record (KTDF)
Temperature  
Mean Temperature 59 °F -  
Max Temperature 68 °F 68 °F 83 °F (1984)
Min Temperature 50 °F 41 °F 24 °F (2001)
Degree Days  
Heating Degree Days 6    
Growing Degree Days 9 (Base 50)    
Moisture  
Dew Point 55 °F    
Average Humidity 89    
Maximum Humidity 99    
Minimum Humidity 66    
Precipitation  
Precipitation 0.00 in - - ()
Sea Level Pressure  
Sea Level Pressure 30.22 in    
Wind  
Wind Speed 0 mph (North)    
Max Wind Speed 0 mph    
Max Gust Speed -    
Visibility 10 miles    
Events      
Averages and records for this station are not official NWS values.
T = Trace of Precipitation, MM = Missing Value Source: NWS Daily Summary

Daily Weather History Graph

Daily Weather History Graph

Search for Another Location

Airport or City:

Astronomy

Oct. 29, 2019 Rise Set
Actual Time 7:34 AM EDT 6:21 PM EDT
Civil Twilight 7:07 AM EDT 6:47 PM EDT
Nautical Twilight 6:37 AM EDT 7:17 PM EDT
Astronomical Twilight 6:07 AM EDT 7:47 PM EDT
Moon 9:03 AM EDT (10/29) 7:46 PM EDT (10/29)
Length of Visible Light 11h 40m
Length of Day
10h 47m
Waxing Crescent, 3% of the Moon is Illuminated
Oct 29
Waxing Crescent
Nov 4
First Quarter
Nov 12
Full
Nov 19
Last Quarter
Nov 26
New

Hourly Weather History & Observations

Time (EDT) Temp. Dew Point Humidity Pressure Visibility Wind Dir Wind Speed Gust Speed Precip Events Conditions
12:15 AM 54.9 °F 52.0 °F 90% 30.20 in 10.0 mi Calm Calm - N/A   Scattered Clouds
12:35 AM 54.1 °F 51.8 °F 92% 30.20 in 10.0 mi Calm Calm - N/A   Mostly Cloudy
12:55 AM 54.1 °F 51.8 °F 92% 30.20 in 10.0 mi Calm Calm - N/A   Mostly Cloudy
1:15 AM 53.8 °F 51.4 °F 92% 30.20 in 10.0 mi Calm Calm - N/A   Scattered Clouds
1:35 AM 53.2 °F 51.3 °F 93% 30.20 in 10.0 mi Calm Calm - N/A   Clear
1:55 AM 53.1 °F 51.1 °F 93% 30.20 in 10.0 mi Calm Calm - N/A   Scattered Clouds
2:15 AM 52.7 °F 50.9 °F 94% 30.20 in 10.0 mi Calm Calm - N/A   Mostly Cloudy
2:35 AM 52.2 °F 51.1 °F 96% 30.20 in 10.0 mi Calm Calm - N/A   Overcast
2:55 AM 52.7 °F 51.4 °F 95% 30.20 in 10.0 mi Calm Calm - N/A   Overcast
3:15 AM 52.0 °F 50.9 °F 96% 30.19 in 10.0 mi Calm Calm - N/A   Scattered Clouds
3:35 AM 51.8 °F 50.9 °F 97% 30.20 in 10.0 mi Calm Calm - N/A   Scattered Clouds
3:55 AM 50.4 °F 49.8 °F 98% 30.19 in 10.0 mi Calm Calm - N/A   Clear
4:15 AM 50.5 °F 50.0 °F 98% 30.19 in 4.0 mi Calm Calm - N/A   Clear
4:35 AM 50.4 °F 49.8 °F 98% 30.20 in 10.0 mi Calm Calm - N/A   Scattered Clouds
4:55 AM 51.1 °F 50.7 °F 99% 30.20 in 10.0 mi Calm Calm - N/A   Mostly Cloudy
5:15 AM 51.3 °F 50.7 °F 98% 30.20 in 10.0 mi Calm Calm - N/A   Mostly Cloudy
5:35 AM 52.0 °F 51.4 °F 98% 30.20 in 10.0 mi Calm Calm - N/A   Overcast
5:55 AM 52.3 °F 51.8 °F 98% 30.21 in 10.0 mi Calm Calm - N/A   Overcast
6:15 AM 52.7 °F 52.0 °F 97% 30.22 in 10.0 mi Calm Calm - N/A   Overcast
6:35 AM 52.9 °F 52.0 °F 97% 30.22 in 10.0 mi Calm Calm - N/A   Overcast
6:55 AM 53.2 °F 52.3 °F 97% 30.22 in 10.0 mi Calm Calm - N/A   Overcast
7:15 AM 53.4 °F 52.5 °F 97% 30.22 in 10.0 mi Calm Calm - N/A   Overcast
7:35 AM 53.6 °F 52.7 °F 97% 30.23 in 10.0 mi Calm Calm - N/A   Overcast
7:55 AM 53.6 °F 52.7 °F 97% 30.23 in 10.0 mi Calm Calm - N/A   Overcast
8:15 AM 53.6 °F 52.9 °F 97% 30.23 in 10.0 mi Calm Calm - N/A   Overcast
8:35 AM 53.6 °F 52.9 °F 97% 30.23 in 10.0 mi Calm Calm - N/A   Overcast
8:55 AM 54.5 °F 53.6 °F 97% 30.24 in 10.0 mi Calm Calm - N/A   Overcast
9:15 AM 55.8 °F 54.1 °F 94% 30.24 in 10.0 mi Calm Calm - N/A   Overcast
9:55 AM 58.1 °F 55.4 °F 91% 30.25 in 10.0 mi Calm Calm - N/A   Overcast
10:15 AM 58.6 °F 55.6 °F 90% 30.25 in 10.0 mi Calm Calm - N/A   Overcast
10:35 AM 59.9 °F 55.8 °F 86% 30.25 in 10.0 mi Calm Calm - N/A   Overcast
11:15 AM 61.3 °F 56.5 °F 84% 30.26 in 10.0 mi Calm Calm - N/A   Overcast
11:35 AM 63.0 °F 56.7 °F 80% 30.26 in 10.0 mi Calm Calm - N/A   Overcast
11:55 AM 63.5 °F 56.8 °F 79% 30.25 in 10.0 mi Calm Calm - N/A   Overcast
12:15 PM 64.8 °F 57.0 °F 76% 30.25 in 10.0 mi Calm Calm - N/A   Mostly Cloudy
12:35 PM 66.6 °F 57.0 °F 71% 30.24 in 10.0 mi Calm Calm - N/A   Scattered Clouds
1:15 PM 68.0 °F 56.8 °F 67% 30.23 in 10.0 mi Calm Calm - N/A   Clear
1:35 PM 68.4 °F 56.7 °F 66% 30.22 in 10.0 mi Calm Calm - N/A   Scattered Clouds
1:55 PM 68.2 °F 56.7 °F 67% 30.22 in 10.0 mi Calm Calm - N/A   Scattered Clouds
2:15 PM 68.4 °F 57.2 °F 67% 30.22 in 7.0 mi Calm Calm - N/A   Mostly Cloudy
2:35 PM 67.3 °F 57.2 °F 70% 30.21 in 10.0 mi Calm Calm - N/A   Overcast
2:55 PM 67.5 °F 57.4 °F 70% 30.21 in 10.0 mi Calm Calm - N/A   Scattered Clouds
3:35 PM 67.3 °F 57.4 °F 70% 30.21 in 10.0 mi Calm Calm - N/A   Scattered Clouds
3:55 PM 67.5 °F 57.4 °F 70% 30.21 in 4.0 mi Calm Calm - N/A   Haze
4:15 PM 67.5 °F 57.4 °F 70% 30.21 in 10.0 mi Calm Calm - N/A   Scattered Clouds
4:35 PM 67.3 °F 57.6 °F 71% 30.22 in 10.0 mi Calm Calm - N/A   Scattered Clouds
4:55 PM 67.1 °F 57.7 °F 72% 30.22 in 10.0 mi Calm Calm - N/A   Clear
5:15 PM 66.4 °F 57.9 °F 74% 30.22 in 10.0 mi Calm Calm - N/A   Scattered Clouds
5:35 PM 65.5 °F 58.1 °F 77% 30.22 in 10.0 mi Calm Calm - N/A   Scattered Clouds
5:55 PM 64.6 °F 58.1 °F 79% 30.22 in 10.0 mi Calm Calm - N/A   Clear
6:35 PM 62.2 °F 58.8 °F 89% 30.22 in 10.0 mi Calm Calm - N/A   Scattered Clouds
6:55 PM 61.2 °F 59.0 °F 93% 30.23 in 10.0 mi Calm Calm - N/A   Clear
7:15 PM 60.6 °F 58.6 °F 93% 30.23 in 10.0 mi Calm Calm - N/A   Clear
7:35 PM 60.1 °F 58.6 °F 95% 30.23 in 10.0 mi Calm Calm - N/A   Clear
7:55 PM 59.5 °F 57.9 °F 94% 30.24 in 10.0 mi Calm Calm - N/A   Clear
8:15 PM 58.5 °F 57.4 °F 96% 30.24 in 10.0 mi Calm Calm - N/A   Scattered Clouds
8:35 PM 58.5 °F 57.4 °F 96% 30.24 in 10.0 mi Calm Calm - N/A   Scattered Clouds
8:55 PM 58.1 °F 57.2 °F 97% 30.25 in 7.0 mi Calm Calm - N/A   Scattered Clouds
9:15 PM 57.9 °F 57.2 °F 97% 30.25 in 10.0 mi Calm Calm - N/A   Scattered Clouds
9:35 PM 57.6 °F 56.8 °F 97% 30.25 in 10.0 mi Calm Calm - N/A   Mostly Cloudy
9:55 PM 57.2 °F 56.5 °F 97% 30.26 in 5.0 mi Calm Calm - N/A   Scattered Clouds
10:35 PM 57.2 °F 56.5 °F 97% 30.26 in 4.0 mi Calm Calm - N/A   Scattered Clouds
10:55 PM 57.2 °F 56.7 °F 98% 30.26 in 7.0 mi Calm Calm - N/A   Mostly Cloudy
11:15 PM 56.7 °F 56.3 °F 99% 30.25 in 10.0 mi Calm Calm - N/A   Mostly Cloudy
11:35 PM 56.3 °F 55.6 °F 97% 30.25 in 10.0 mi Calm Calm - N/A   Mostly Cloudy
11:55 PM 56.3 °F 55.8 °F 98% 30.24 in 10.0 mi Calm Calm - N/A   Scattered Clouds